Location: Alladorf
(49.9620°N, 11.3790°E)
Time: 21:27:56
(UTC+00:00)

Cosmos 1515 Rocket - Pass Details

Date: 29 November 2020
Orbit: 605 x 631 km, 82.5° (Epoch: 25 January)

Event Time Altitude Azimuth Distance (km) Brightness Sun altitude
Exits shadow 04:09:38 29° 5° (N) 1,180 4.9 -24.8°
Maximum altitude 04:11:50 63° 77° (ENE) 710 4.0 -24.4°
Drops below altitude 10° 04:16:16 10° 159° (SSE) 2,009 6.5 -23.7°
Sets 04:18:30 0° 163° (SSE) 2,911 7.3 -23.3°
